Home > Weather > Kriens > Past weeks

Flag for Switzerland Weather for the Past 2 Weeks in Kriens, Lucerne, Switzerland

Now
36 °F

Chilly.


Feels Like: 36 °F
Forecast: 42 / 72 °F
Wind: 2 mph from West

Location: Giswil

Current Time: May 6, 2016 at 4:32:50 AM

Latest Report: May 6, 2016 at 3:00 AM


Visibility: N/A

Pressure: 30.11 "Hg

Humidity: 89%

Dew Point: 33 °F

Location of KriensLocation

Historic Weather in Kriens — Graph

°F

Kriens Temperature Yesterday

Maximum temperature yesterday: 67 °F (at 6:00 PM)
Minimum temperature yesterday: 32 °F (at 7:00 AM)
Average temperature yesterday: 48 °F

High & Low Weather Summary for the Past Weeks

 TemperatureHumidityPressure
High69 °F (Apr 21, 5:00 PM)100% (Apr 21, 5:00 AM)30.38 "Hg (Apr 21, 5:00 AM)
Low29 °F (Apr 29, 6:00 AM)30% (May 5, 6:00 PM)29.63 "Hg (Apr 26, 5:00 PM)
Average48 °F75%30.06 "Hg
* Reported Apr 21 3:00 AM — May 6 3:00 AM, Kriens, Weather by CustomWeather, © 2016

Note: Actual official high and low records may vary slightly from our data, if they occured in-between our weather recording intervals... More about our weather records

Advertising

Kriens Weather History for the Previous 24 Hours

Scroll right to see more
 ConditionsComfort  
Time TempWeatherWind HumidityBarometerVisibility
3:00 AM
Fri, May 6
36 °FChilly.2 mph89%30.11 "HgN/A
2:00 AM39 °FChilly.1 mph86%30.11 "HgN/A
1:00 AM40 °FQuite cool.1 mph85%30.10 "HgN/A
12:00 AM42 °FQuite cool.2 mph82%30.09 "HgN/A
11:00 PM
Thu, May 5
44 °FQuite cool.3 mph78%30.09 "HgN/A
10:00 PM48 °FCool.6 mph71%30.07 "HgN/A
9:00 PM53 °FCool.3 mph62%30.04 "HgN/A
8:00 PM58 °FRefreshingly cool.3 mph55%30.01 "HgN/A
7:00 PM66 °FMild.2 mph32%29.99 "HgN/A
6:00 PM67 °FMild.2 mph30%30.00 "HgN/A
5:00 PM66 °FMild.2 mph31%30.01 "HgN/A
4:00 PM65 °FMild.3 mph33%30.03 "HgN/A
3:00 PM63 °FMild.3 mph35%30.04 "HgN/A
2:00 PM60 °FRefreshingly cool.3 mph36%30.07 "HgN/A
1:00 PM58 °FRefreshingly cool.3 mph41%30.09 "HgN/A
12:00 PM55 °FCool.3 mph49%30.11 "HgN/A
11:00 AM52 °FCool.2 mph52%30.14 "HgN/A
10:00 AM48 °FCool.2 mph57%30.15 "HgN/A
9:00 AM44 °FQuite cool.1 mph79%30.19 "HgN/A
8:00 AM40 °FChilly.1 mph84%30.22 "HgN/A
7:00 AM32 °FChilly.1 mph97%30.26 "HgN/A
6:00 AM33 °FChilly.1 mph96%30.27 "HgN/A
5:00 AM34 °FChilly.1 mph94%30.27 "HgN/A
4:00 AM33 °FChilly.1 mph95%30.28 "HgN/A
Weather by CustomWeather, © 2016

See weather overviewHow to use our weather pages